Regional Weather Roundup
Issued by NWS

Home | Current Version | Previous Version | Graphics & Text | Print | Product List | Glossary Off
Versions: 1 2 3 4 5 6 7 8 9 10 11 12 13 14 15 16 17 18 19 20 21 22 23 24 25 26 27 28 29 30 31 32 33 34 35 36 37 38 39 40 41 42 43 44 45 46 47 48 49 50

000
ASUS43 KDTX 272010
RWRMI
MICHIGAN HOURLY REGIONAL WEATHER ROUNDUP
NATIONAL WEATHER SERVICE DETROIT/PONTIAC MI
400 PM EDT MON MAR 27 2017

NOTE: "FAIR" INDICATES FEW OR NO CLOUDS BELOW 12,000 FEET WITH NO
SIGNIFICANT WEATHER AND/OR OBSTRUCTION TO VISIBILITY.

MIZ047>049-052>055-059>063-066>070-074>076-081>083-272100-
SOUTHEAST LOWER MICHIGAN

CITY           SKY/WX    TMP DP  RH WIND       PRES   REMARKS
ADRIAN         CLOUDY    58  48  69 W7        29.90F
ALMA           CLOUDY    50  44  78 W8        29.90S
ANN ARBOR      CLOUDY    59  49  69 SW10      29.89F
BAD AXE        CLOUDY    49  46  90 W7        29.89F
CARO           CLOUDY    54  47  79 W7        29.87F
DETROIT CITY   CLOUDY    61  49  64 SW7       29.88S
DETROIT        CLOUDY    61  49  64 SW9       29.89F
FLINT          CLOUDY    56  48  74 SW10      29.88F
GROSSE ILE     CLOUDY    48  45  88 S7        29.89F
HILLSDALE      CLOUDY    55  46  71 SW5       29.89F
HOWELL         CLOUDY    56  47  72 W7        29.88F

CITY           SKY/WX    TMP DP  RH WIND       PRES   REMARKS
JACKSON        CLOUDY    58  48  69 W8        29.89F
LAMBERTVILLE   CLOUDY    62  51  66 W9        29.89F
LANSING        CLOUDY    55  45  68 W13       29.91R
LAPEER         CLOUDY    56  49  77 SW8       29.88F
MASON          CLOUDY    55  49  78 W6        29.90S
MONROE         CLOUDY    59  52  76 SW8       29.89F
MT. CLEMENS    PTSUNNY   60  51  72 SW8       29.87F
PONTIAC        CLOUDY    57  48  72 W7        29.87F
PORT HOPE        N/A     49  45  86 W5        29.87S
PORT HURON     CLOUDY    57  48  72 W6        29.88F
TRI CITIES     CLOUDY    50  45  83 W10       29.89F
MIDLAND        CLOUDY    49  42  74 NW8       29.89S
TROY           CLOUDY    59  48  66 SW7       29.90F
SAGINAW HB     CLOUDY    52  43  71 SW10      29.88F
$$
MIZ043>046-050>051-056>058-064>065-071>073-077>080-272100-
SOUTHWEST LOWER MICHIGAN

CITY           SKY/WX    TMP DP  RH WIND       PRES   REMARKS
BATTLE CREEK   CLOUDY    54  49  83 W7        29.91F
BENTON HARBOR  CLOUDY    45  39  79 VRB3      29.92F
BIG RAPIDS     CLOUDY    45  39  81 W7        29.90F
COLDWATER      CLOUDY    56  49  77 CALM      29.90F
FREMONT        CLOUDY    46  39  78 W5        29.91F
HOLLAND        CLOUDY    46  39  76 W6        29.93F
GRAND RAPIDS   CLOUDY    49  44  83 SW8       29.91S
IONIA          CLOUDY    51  43  75 SW8       29.90R
KALAMAZOO      CLOUDY    54  46  74 W7        29.91F
LUDINGTON      CLOUDY    40  38  91 NW5       29.93S
MARSHALL       PTSUNNY   56  49  79 SW7       29.90F
MOUNT PLEASANT CLOUDY    48  42  80 W7        29.89S
MUSKEGON       CLOUDY    45  38  76 NW6       29.93F
SOUTH HAVEN    CLOUDY    44  40  88 N5        29.93F
$$
MIZ016>042-272100-
NORTHERN LOWER MICHIGAN

CITY           SKY/WX    TMP DP  RH WIND       PRES   REMARKS
ALPENA         CLOUDY    43  39  86 NW9       29.89F
BEAVER ISLAND  CLOUDY    38  35  91 W5        29.94F WCI  34
BELLAIRE       CLOUDY    38  35  90 W5        29.94R WCI  34
CADILLAC       CLOUDY    41  39  92 W8        29.89F
CHARLEVOIX     CLOUDY    37  37  98 W8        29.97S WCI  31
FRANKFORT      CLOUDY    39  35  85 N7        29.94F WCI  34
GAYLORD        CLOUDY    40  35  83 W5        29.89S
GRAYLING       CLOUDY    41  37  87 NW8       29.90S
HARBOR SPRINGS CLOUDY    36  36  99 W7        29.93R WCI  31
HOUGHTON LAKE  CLOUDY    42  38  85 W6        29.90S
MANISTEE       CLOUDY    39  36  89 NW9       29.94S WCI  33
OSCODA         CLOUDY    40  40  97 CALM      29.88S FOG
PELLSTON       CLOUDY    39  34  82 NW9       29.93R WCI  33
ROGERS CITY    CLOUDY    41  37  84 N6        29.90F
TRAVERSE CITY  CLOUDY    40  36  86 VRB6      29.92S
$$
MIZ007>008-015-272100-
EASTERN UPPER MICHIGAN

CITY           SKY/WX    TMP DP  RH WIND       PRES   REMARKS
KINROSS        CLOUDY    37  34  89 NW12      29.91S WCI  29
MACKINAC ISLAN CLOUDY    35  35 100 W5        29.92S WCI  31
NEWBERRY       CLOUDY    36  34  94 NW8       29.93S WCI  29
S. S. MARIE    CLOUDY    36  33  89 W8        29.91R WCI  30
MUNISING         N/A     34  33  96 N9        29.96F WCI  27
$$
MIZ004>006-011>014-085-272100-
CENTRAL UPPER MICHIGAN

CITY           SKY/WX    TMP DP  RH WIND       PRES   REMARKS
MANISTIQUE     CLOUDY    39  37  93 NW9       29.94F WCI  33
ESCANABA       CLOUDY    42  36  79 NW6       29.95F
SAWYER-GWINN   CLOUDY    36  34  93 N7        29.96S WCI  30
$$
MIZ001>003-009>011-084-272100-
WESTERN UPPER MICHIGAN

CITY           SKY/WX    TMP DP  RH WIND       PRES   REMARKS
IRON MOUNTAIN  CLOUDY    42  34  73 N7        29.93F
HOUGHTON       CLOUDY    37  32  82 W9        29.96S WCI  30
COPPER HARBOR    N/A     36  33  89 N16       29.97R WCI  26
IRONWOOD       MOSUNNY   48  33  56 NW5       29.97S
$$

ABBREVIATIONS USED IN REMARKS
   TC - TEMPERATURE IN CELSIUS
  WCI - WIND CHILL INDEX
   HX - HEAT INDEX
  VSB - VISIBILITY





USA.gov is the U.S. government's official web portal to all federal, state and local government web resources and services.